Regional Weather Roundup
Issued by NWS Little Rock, AR

Home | Current Version | Previous Version | Graphics & Text | Print | Product List | Glossary On
Versions: 1 2 3 4 5 6 7 8 9 10 11 12 13 14 15 16 17 18 19 20 21 22 23 24 25 26 27 28 29 30 31 32 33 34 35 36 37 38 39 40 41 42 43 44 45 46 47 48 49 50
000
ASUS44 KLZK 231812
RWRLZK

WEATHER ROUNDUP FOR ARKANSAS
NATIONAL WEATHER SERVICE LITTLE ROCK AR
100 PM CDT TUE MAY 23 2017

NOTE: "FAIR" INDICATES FEW OR NO CLOUDS BELOW 12,000 FEET WITH NO
SIGNIFICANT WEATHER AND/OR OBSTRUCTIONS TO VISIBILITY.

ARZ001-003-010-029-231900-
NORTHWEST ARKANSAS

CITY           SKY/WX    TMP DP  RH WIND       PRES   REMARKS
FAYETTEVILLE   PTSUNNY   69  57  65 NW8       29.84S
6HR MIN TEMP:  59; 6HR MAX TEMP:  70;

FORT SMITH     MOSUNNY   72  54  53 NW5G17    29.83F
6HR MIN TEMP:  63; 6HR MAX TEMP:  74;

HARRISON       CLOUDY    68  55  63 NW8       29.81F
6HR MIN TEMP:  60; 6HR MAX TEMP:  70;

BENTONVILLE    PTSUNNY   68  55  64 NW12G17   29.85F
6HR MIN TEMP:  59; 6HR MAX TEMP:  68;

ROGERS         CLOUDY    67  56  67 NW13      29.84F
6HR MIN TEMP:  58; 6HR MAX TEMP:  67; 6HR PCP:  0.03;

SILOAM SPGS    CLOUDY    66  54  63 NW16      29.85F
6HR MIN TEMP:  57; 6HR MAX TEMP:  70;

HIGHFILL       CLOUDY    69  56  62 W13       29.85F
6HR MIN TEMP:  59; 6HR MAX TEMP:  70;

SPRINGDALE     PTSUNNY   68  55  64 NW12      29.85F
$$

ARZ004-005-016-231900-
NORTH CENTRAL ARKANSAS

CITY           SKY/WX    TMP DP  RH WIND       PRES   REMARKS
BATESVILLE     PTSUNNY   72  57  60 W8        29.78F
6HR MIN TEMP:  57; 6HR MAX TEMP:  72;

FLIPPIN        MOSUNNY   73  54  49 W7        29.76F
6HR MIN TEMP:  59; 6HR MAX TEMP:  73; 6HR PCP:  0.03;

MTN HOME       MOSUNNY   71  57  61 W3        29.78F
6HR MIN TEMP:  59; 6HR MAX TEMP:  71; 6HR PCP:  0.05;

$$

ARZ040-041-231900-
WEST CENTRAL ARKANSAS

CITY           SKY/WX    TMP DP  RH WIND       PRES   REMARKS
MENA           PTSUNNY   73  61  64 NW12      29.84F
MOUNT IDA      CLOUDY    74  57  55 VRB3      29.80F
6HR MIN TEMP:  59; 6HR MAX TEMP:  74;

$$

ARZ009-017-025-026-028-231900-
NORTHEAST ARKANSAS

CITY           SKY/WX    TMP DP  RH WIND       PRES   REMARKS
JONESBORO      CLOUDY    76  51  41 VRB7      29.75F
6HR MIN TEMP:  61; 6HR MAX TEMP:  77;

NEWPORT        MOSUNNY   73  59  61 NW6       29.77F
6HR MIN TEMP:  61; 6HR MAX TEMP:  74;

WALNUT RIDGE   CLOUDY    72  55  56 CALM      29.76S
6HR MIN TEMP:  61; 6HR MAX TEMP:  73;

BLYTHEVILLE    PTSUNNY   74  51  44 CALM      29.76F
6HR MIN TEMP:  65; 6HR MAX TEMP:  76;

NW BLYTHEVILLE PTSUNNY   75  57  53 W9        29.75F
$$

ARZ022-023-033-042-044-231900-
CENTRAL ARKANSAS

CITY           SKY/WX    TMP DP  RH WIND       PRES   REMARKS
LITTLE ROCK    PTSUNNY   76  60  57 NW9       29.78F
6HR MIN TEMP:  61; 6HR MAX TEMP:  77;

N LITTLE ROCK    N/A     73  62  67 NW6       29.79S
6HR MIN TEMP:  60; 6HR MAX TEMP:  73;

CONWAY           N/A     77  59  53 W9G16     29.76F
SEARCY         PTSUNNY   75  61  61 VRB5      29.78F
6HR MIN TEMP:  58; 6HR MAX TEMP:  75;

HOT SPRINGS    PTSUNNY   72  61  68 W7        29.80F
6HR MIN TEMP:  60; 6HR MAX TEMP:  74;

RUSSELLVILLE   SUNNY     74  56  53 W10G20    29.78F
6HR MIN TEMP:  59; 6HR MAX TEMP:  75;

CLINTON        FAIR      77  57  50 W12       29.77F
$$

ARZ036-231900-
EAST ARKANSAS

CITY           SKY/WX    TMP DP  RH WIND       PRES   REMARKS
WEST MEMPHIS   MOSUNNY   75  54  47 VRB6      29.74F
6HR MIN TEMP:  62; 6HR MAX TEMP:  76;

$$

ARZ050-053-066-070-073-231900-
SOUTHWEST ARKANSAS

CITY           SKY/WX    TMP DP  RH WIND       PRES   REMARKS
ARKADELPHIA      N/A     74  62  66 N7        29.82S
6HR MIN TEMP:  59; 6HR MAX TEMP:  75;

CAMDEN         PTSUNNY   77  59  53 NW3       29.80F
TEXARKANA      CLOUDY    74  58  57 W9        29.84F
6HR MIN TEMP:  59; 6HR MAX TEMP:  74;

EL DORADO      PTSUNNY   75  60  59 W10       29.82F
6HR MIN TEMP:  59; 6HR MAX TEMP:  76;

DE QUEEN       CLOUDY    75  62  64 VRB5      29.81F
6HR MIN TEMP:  60; 6HR MAX TEMP:  75; 6HR PCP: TRACE;

$$

ARZ056-057-069-231900-
SOUTHEAST ARKANSAS

CITY           SKY/WX    TMP DP  RH WIND       PRES   REMARKS
PINE BLUFF     CLOUDY    74  59  59 W7        29.79F
6HR MIN TEMP:  63; 6HR MAX TEMP:  74;

STUTTGART      PTSUNNY   75  54  46 W9        29.79F
6HR MIN TEMP:  64; 6HR MAX TEMP:  75;

MONTICELLO     MOSUNNY   73  60  63 SW7       29.80F
6HR MIN TEMP:  61; 6HR MAX TEMP:  74;


$$





USA.gov is the U.S. government's official web portal to all federal, state and local government web resources and services.